This is the latest recevied weather packets stored in our database for station/object K9MWD. If no packets are shown the sender has not sent any weather packets the latest 10 day(s).
| Time | Temp. | Humidity | Pressure | Rain* | Wind** | Luminosity | Snow |
|---|---|---|---|---|---|---|---|
| 1788221051 | 36.67° C | 28% | 1013.4 hPa | 0 mm | - | 54 W/m² | - |
| 1788220749 | 36.67° C | 28% | 1013.5 hPa | 0 mm | - | 61 W/m² | - |
| 1788220446 | 36.67° C | 29% | 1013.4 hPa | 0 mm | - | 70 W/m² | - |
| 1788220145 | 37.22° C | 29% | 1013.6 hPa | 0 mm | - | 79 W/m² | - |
| 1788219840 | 37.22° C | 29% | 1013.6 hPa | 0 mm | - | 87 W/m² | - |
| 1788219536 | 37.22° C | 30% | 1013.7 hPa | 0 mm | - | 98 W/m² | - |
| 1788219230 | 37.78° C | 30% | 1013.6 hPa | 0 mm | - | 108 W/m² | - |
| 1788218926 | 37.78° C | 30% | 1013.5 hPa | 0 mm | - | 121 W/m² | - |
| 1788218622 | 37.78° C | 30% | 1013.5 hPa | 0 mm | - | 132 W/m² | - |
| 1788218318 | 37.78° C | 30% | 1013.6 hPa | 0 mm | - | 144 W/m² | - |
| 1788218014 | 37.78° C | 30% | 1013.6 hPa | 0 mm | - | 160 W/m² | - |
| 1788217709 | 37.78° C | 30% | 1013.6 hPa | 0 mm | - | 186 W/m² | - |
| 1788217404 | 37.78° C | 30% | 1013.6 hPa | 0 mm | - | 204 W/m² | - |
| 1788217104 | 38.33° C | 29% | 1013.5 hPa | 0 mm | - | 219 W/m² | - |
| 1788216799 | 37.78° C | 30% | 1013.5 hPa | 0 mm | - | 227 W/m² | - |
| 1788216494 | 38.33° C | 30% | 1013.7 hPa | 0 mm | - | 244 W/m² | - |
| 1788216189 | 38.33° C | 30% | 1013.6 hPa | 0 mm | - | 266 W/m² | - |
| 1788215883 | 38.33° C | 30% | 1013.8 hPa | 0 mm | - | 286 W/m² | - |
| 1788215580 | 37.78° C | 30% | 1014 hPa | 0 mm | - | 303 W/m² | - |
| 1788215276 | 37.78° C | 31% | 1013.9 hPa | 0 mm | - | 308 W/m² | - |
| 1788214972 | 37.78° C | 31% | 1013.9 hPa | 0 mm | - | 330 W/m² | - |
| 1788214667 | 37.78° C | 31% | 1013.9 hPa | 0 mm | - | 346 W/m² | - |
| 1788214362 | 37.22° C | 32% | 1013.8 hPa | 0 mm | - | 348 W/m² | - |
| 1788214057 | 37.22° C | 33% | 1013.9 hPa | 0 mm | - | 386 W/m² | - |
| 1788213753 | 38.33° C | 33% | 1014 hPa | 0 mm | - | 409 W/m² | - |
* Rain latest hour (hover to see other rain measurements)
** Current wind speed in m/s (hover to see current wind gust speed)